Charlotte, MI

2:41 PM EST on December 11, 2017 (GMT -0500)
Charlotte

Weather History for KFPK - January, 2014

Change the Weather History Date:

Saturday, January 18, 2014

  Actual Average (KLAN) Record (KLAN)
Temperature  
Mean Temperature 15 °F -  
Max Temperature 20 °F 28 °F 60 °F (1996)
Min Temperature 10 °F 12 °F -25 °F (1976)
Degree Days  
Heating Degree Days 50    
Moisture  
Dew Point 11 °F    
Average Humidity 79    
Maximum Humidity 90    
Minimum Humidity 66    
Precipitation  
Precipitation 0.00 in - - ()
Sea Level Pressure  
Sea Level Pressure 29.83 in    
Wind  
Wind Speed 8 mph (South)    
Max Wind Speed 13 mph    
Max Gust Speed 17 mph    
Visibility 8 miles    
Events Snow    
Averages and records for this station are not official NWS values.
T = Trace of Precipitation, MM = Missing Value Source: NWS Daily Summary

Daily Weather History Graph

Daily Weather History Graph

Search for Another Location

Airport or City:

Trip Planner

Search our weather history database for the weather conditions in past years. The results will help you decide how hot, cold, wet, or windy it might be!

Date:

Astronomy

Jan. 18, 2014 Rise Set
Actual Time 8:04 AM EST 5:35 PM EST
Civil Twilight 7:33 AM EST 6:05 PM EST
Nautical Twilight 6:59 AM EST 6:40 PM EST
Astronomical Twilight 6:25 AM EST 7:14 PM EST
Moon 8:20 PM EST (1/18) 9:00 AM EST (1/18)
Length of Visible Light 10h 32m
Length of Day
9h 30m
Waning Gibbous, 94% of the Moon is Illuminated
Jan 18
Waning Gibbous
Jan 24
Last Quarter
Jan 30
New
Feb 6
First Quarter
Feb 14
Full

Hourly Weather History & Observations

Time (EST) Temp. Windchill Dew Point Humidity Pressure Visibility Wind Dir Wind Speed Gust Speed Precip Events Conditions
12:15 AM 14.0 °F 2.0 °F 7.9 °F 77% 29.86 in 10.0 mi SSW 9.2 mph - N/A   Overcast
12:35 AM 14.0 °F 2.0 °F 8.1 °F 77% 29.86 in 10.0 mi SSW 9.2 mph - N/A   Overcast
12:55 AM 13.8 °F 2.7 °F 7.7 °F 77% 29.86 in 10.0 mi South 8.1 mph - N/A   Overcast
1:15 AM 13.8 °F 2.7 °F 8.2 °F 78% 29.86 in 10.0 mi South 8.1 mph - N/A   Overcast
1:35 AM 13.6 °F -0.7 °F 8.6 °F 80% 29.85 in 10.0 mi South 12.7 mph 17.3 mph N/A   Overcast
1:55 AM 13.8 °F 1.0 °F 8.6 °F 80% 29.85 in 10.0 mi South 10.4 mph - N/A   Overcast
2:15 AM 14.0 °F 2.0 °F 8.8 °F 80% 29.85 in 10.0 mi South 9.2 mph - N/A   Overcast
2:35 AM 14.0 °F 2.0 °F 9.1 °F 81% 29.85 in 10.0 mi South 9.2 mph - N/A   Overcast
2:55 AM 14.0 °F 2.0 °F 9.3 °F 82% 29.86 in 10.0 mi South 9.2 mph - N/A Snow Light Snow
3:15 AM 14.4 °F 1.6 °F 9.5 °F 81% 29.86 in 7.0 mi South 10.4 mph - N/A Snow Light Snow
3:35 AM 14.5 °F 1.9 °F 10.4 °F 84% 29.85 in 5.0 mi South 10.4 mph - N/A Snow Light Snow
3:55 AM 14.5 °F 1.9 °F 10.4 °F 84% 29.85 in 5.0 mi South 10.4 mph - N/A Snow Light Snow
4:15 AM 14.9 °F 3.1 °F 10.6 °F 83% 29.84 in 7.0 mi South 9.2 mph - N/A Snow Light Snow
4:35 AM 14.9 °F 1.6 °F 10.9 °F 84% 29.84 in 7.0 mi South 11.5 mph - N/A   Overcast
4:55 AM 15.3 °F 3.5 °F 11.1 °F 84% 29.84 in 5.0 mi South 9.2 mph 16.1 mph N/A Snow Light Snow
5:15 AM 15.6 °F 4.0 °F 11.3 °F 83% 29.83 in 7.0 mi South 9.2 mph - N/A Snow Light Snow
5:35 AM 15.6 °F 5.9 °F 11.3 °F 83% 29.84 in 7.0 mi SSW 6.9 mph - N/A Snow Light Snow
5:55 AM 15.8 °F 5.1 °F 11.7 °F 84% 29.83 in 4.0 mi SSW 8.1 mph - N/A Snow Light Snow
6:15 AM 16.2 °F 6.5 °F 12.2 °F 84% 29.83 in 5.0 mi South 6.9 mph - N/A Snow Light Snow
6:35 AM 16.5 °F 6.9 °F 12.6 °F 84% 29.84 in 7.0 mi SSW 6.9 mph - N/A Snow Light Snow
6:55 AM 16.7 °F 4.5 °F 12.6 °F 84% 29.84 in 7.0 mi SSW 10.4 mph - N/A   Overcast
7:15 AM 16.7 °F 4.5 °F 12.7 °F 84% 29.84 in 10.0 mi SSW 10.4 mph 16.1 mph N/A   Overcast
7:35 AM 16.7 °F 4.5 °F 12.7 °F 84% 29.84 in 10.0 mi SSW 10.4 mph - N/A   Overcast
7:55 AM 16.5 °F 4.3 °F 12.7 °F 85% 29.83 in 7.0 mi SSW 10.4 mph - N/A   Overcast
8:15 AM 16.3 °F 4.9 °F 12.6 °F 85% 29.84 in 5.0 mi SSW 9.2 mph - N/A   Overcast
8:35 AM 16.2 °F 3.2 °F 12.2 °F 84% 29.84 in 7.0 mi SSW 11.5 mph - N/A   Overcast
8:55 AM 16.2 °F 4.7 °F 11.8 °F 83% 29.85 in 7.0 mi SSW 9.2 mph - N/A   Overcast
9:15 AM 16.3 °F 4.9 °F 11.7 °F 82% 29.86 in 7.0 mi SW 9.2 mph - N/A   Overcast
9:35 AM 16.3 °F 4.9 °F 11.3 °F 81% 29.86 in 7.0 mi SW 9.2 mph - N/A Snow Light Snow
9:55 AM 16.7 °F 4.5 °F 11.3 °F 79% 29.86 in 5.0 mi SSW 10.4 mph - N/A Snow Light Snow
10:15 AM 16.7 °F 6.2 °F 11.3 °F 79% 29.87 in 4.0 mi SW 8.1 mph - N/A Snow Light Snow
10:35 AM 17.1 °F 5.8 °F 11.5 °F 79% 29.87 in 3.0 mi SSW 9.2 mph - N/A Snow Light Snow
10:55 AM 17.2 °F 6.0 °F 11.7 °F 79% 29.86 in 4.0 mi South 9.2 mph - N/A Snow Light Snow
11:15 AM 17.2 °F 6.0 °F 11.3 °F 78% 29.87 in 7.0 mi South 9.2 mph - N/A   Overcast
11:35 AM 17.6 °F 5.7 °F 11.7 °F 78% 29.87 in 5.0 mi SSW 10.4 mph - N/A   Haze
11:55 AM 18.1 °F 7.9 °F 11.5 °F 75% 29.86 in 7.0 mi South 8.1 mph - N/A Snow Light Snow
12:15 PM 18.9 °F 8.8 °F 11.8 °F 74% 29.84 in 10.0 mi South 8.1 mph - N/A Snow Light Snow
12:35 PM 18.5 °F 6.8 °F 11.8 °F 75% 29.84 in 10.0 mi South 10.4 mph - N/A   Overcast
12:55 PM 19.0 °F 10.0 °F 11.7 °F 73% 29.84 in 10.0 mi South 6.9 mph - N/A   Overcast
1:15 PM 19.4 °F 10.4 °F 11.3 °F 71% 29.83 in 10.0 mi South 6.9 mph - N/A   Overcast
1:35 PM 19.8 °F 9.1 °F 11.1 °F 69% 29.83 in 10.0 mi South 9.2 mph - N/A   Overcast
1:55 PM 20.3 °F 9.8 °F 11.8 °F 70% 29.82 in 10.0 mi South 9.2 mph - N/A   Overcast
2:15 PM 20.5 °F 11.7 °F 11.5 °F 68% 29.81 in 10.0 mi South 6.9 mph - N/A   Overcast
2:35 PM 20.7 °F 10.2 °F 11.8 °F 69% 29.81 in 10.0 mi SSE 9.2 mph - N/A   Overcast
2:55 PM 20.3 °F 11.5 °F 10.9 °F 67% 29.80 in 10.0 mi South 6.9 mph - N/A   Scattered Clouds
3:15 PM 20.7 °F 13.0 °F 11.1 °F 67% 29.80 in 10.0 mi SSE 5.8 mph - N/A   Mostly Cloudy
3:35 PM 20.7 °F 11.0 °F 11.3 °F 67% 29.81 in 10.0 mi SSE 8.1 mph - N/A   Scattered Clouds
3:55 PM 20.3 °F 10.6 °F 10.4 °F 66% 29.81 in 10.0 mi SSE 8.1 mph - N/A   Scattered Clouds
4:15 PM 20.3 °F 10.6 °F 10.4 °F 66% 29.81 in 10.0 mi SSE 8.1 mph - N/A   Mostly Cloudy
4:35 PM 19.9 °F 11.1 °F 10.9 °F 68% 29.81 in 10.0 mi SSE 6.9 mph - N/A   Scattered Clouds
4:55 PM 19.4 °F 9.5 °F 10.9 °F 70% 29.82 in 10.0 mi SSE 8.1 mph - N/A   Clear
5:15 PM 19.4 °F 12.8 °F 10.9 °F 70% 29.82 in 10.0 mi SSE 4.6 mph - N/A   Scattered Clouds
5:35 PM 19.2 °F 14.1 °F 10.8 °F 70% 29.82 in 10.0 mi SSE 3.5 mph - N/A   Mostly Cloudy
5:55 PM 19.0 °F 13.9 °F 11.5 °F 72% 29.83 in 10.0 mi South 3.5 mph - N/A   Overcast
6:15 PM 19.0 °F 13.9 °F 11.1 °F 71% 29.84 in 10.0 mi SSW 3.5 mph - N/A   Overcast
6:35 PM 19.0 °F - 11.3 °F 72% 29.84 in 10.0 mi Calm Calm - N/A   Overcast
6:55 PM 19.0 °F 13.9 °F 11.5 °F 72% 29.84 in 10.0 mi South 3.5 mph - N/A   Overcast
7:15 PM 19.0 °F 11.1 °F 12.6 °F 76% 29.84 in 5.0 mi South 5.8 mph - N/A Snow Light Snow
7:35 PM 18.5 °F 9.3 °F 13.3 °F 80% 29.84 in 5.0 mi South 6.9 mph - N/A Snow Light Snow
7:55 PM 17.6 °F 8.2 °F 12.9 °F 82% 29.84 in 7.0 mi South 6.9 mph - N/A   Overcast
8:15 PM 17.1 °F 8.7 °F 12.9 °F 84% 29.84 in 4.0 mi South 5.8 mph - N/A Snow Light Snow
8:35 PM 17.1 °F 11.7 °F 13.1 °F 84% 29.84 in 4.0 mi South 3.5 mph - N/A Snow Light Snow
8:55 PM 17.1 °F 11.7 °F 12.9 °F 84% 29.83 in 5.0 mi SSE 3.5 mph - N/A Snow Light Snow
9:15 PM 16.7 °F 11.2 °F 12.9 °F 85% 29.81 in 4.0 mi SE 3.5 mph - N/A Snow Light Snow
9:35 PM 15.8 °F - 12.2 °F 86% 29.81 in 7.0 mi Calm Calm - N/A Snow Light Snow
9:55 PM 15.4 °F - 12.0 °F 86% 29.81 in 7.0 mi Calm Calm - N/A Snow Light Snow
10:15 PM 13.8 °F - 11.3 °F 90% 29.80 in 7.0 mi Calm Calm - N/A Snow Light Snow
10:35 PM 13.1 °F - 10.8 °F 90% 29.80 in 5.0 mi Calm Calm - N/A   Scattered Clouds
10:55 PM 12.2 °F - 9.7 °F 90% 29.78 in 7.0 mi Calm Calm - N/A   Mostly Cloudy
11:15 PM 10.8 °F - 8.1 °F 89% 29.78 in 5.0 mi Calm Calm - N/A Snow Light Snow
11:35 PM 12.0 °F - 9.1 °F 88% 29.78 in 4.0 mi Calm Calm - N/A Snow Light Snow
11:55 PM 12.2 °F - 9.5 °F 89% 29.77 in 4.0 mi Calm Calm - N/A Snow Light Snow